Marshfield, WI

6:45 AM CST on February 23, 2018 (GMT -0600)
Marshfield Municipal

Weather History for KMFI - July, 2012

Change the Weather History Date:

Monday, July 9, 2012

  Actual Average Record
Temperature  
Mean Temperature 72 °F -  
Max Temperature 84 °F 81 °F 99 °F (1936)
Min Temperature 61 °F 58 °F 44 °F (1963)
Cooling Degree Days 6    
Growing Degree Days 22 (Base 50)    
Moisture  
Dew Point 56 °F    
Average Humidity 58    
Maximum Humidity 93    
Minimum Humidity 33    
Precipitation  
Precipitation 0.00 in - - ()
Sea Level Pressure  
Sea Level Pressure 30.09 in    
Wind  
Wind Speed 4 mph (North)    
Max Wind Speed 13 mph    
Max Gust Speed 20 mph    
Visibility 10 miles    
Events      
Averages and records for this station are not official NWS values.
T = Trace of Precipitation, MM = Missing Value Source: NWS Daily Summary

Daily Weather History Graph

Daily Weather History Graph

Search for Another Location

Airport or City:

Trip Planner

Search our weather history database for the weather conditions in past years. The results will help you decide how hot, cold, wet, or windy it might be!

Date:

Astronomy

Jul. 09, 2012 Rise Set
Actual Time 5:25 AM CDT 8:46 PM CDT
Civil Twilight 4:48 AM CDT 9:22 PM CDT
Nautical Twilight 4:01 AM CDT 10:09 PM CDT
Astronomical Twilight 3:02 AM CDT 11:08 PM CDT
Moon 11:42 PM CDT (7/9) 12:11 PM CDT (7/9)
Length of Visible Light 16h 33m
Length of Day
15h 21m
Waning Gibbous, 63% of the Moon is Illuminated
Jul 9
Waning Gibbous
Jul 10
Last Quarter
Jul 18
New
Jul 26
First Quarter
Aug 1
Full

Hourly Weather History & Observations

Time (CDT) Temp. Heat Index Dew Point Humidity Pressure Visibility Wind Dir Wind Speed Gust Speed Precip Events Conditions
12:54 AM 64.9 °F - 61.0 °F 87% 30.08 in 10.0 mi North 4.6 mph - N/A   Clear
1:54 AM 64.9 °F - 62.1 °F 90% 30.08 in 10.0 mi Calm Calm - N/A   Clear
2:54 AM 64.0 °F - 61.0 °F 90% 30.08 in 10.0 mi Calm Calm - N/A   Partly Cloudy
3:54 AM 63.0 °F - 60.1 °F 90% 30.08 in 10.0 mi Calm Calm - N/A   Partly Cloudy
4:54 AM 62.1 °F - 59.0 °F 90% 30.09 in 10.0 mi Calm Calm - N/A   Clear
5:54 AM 61.0 °F - 59.0 °F 93% 30.09 in 9.0 mi Calm Calm - N/A   Clear
6:54 AM 66.9 °F - 63.0 °F 87% 30.09 in 10.0 mi Calm Calm - N/A   Scattered Clouds
7:54 AM 73.0 °F - 61.0 °F 66% 30.09 in 10.0 mi Calm Calm - N/A   Clear
8:54 AM 77.0 °F - 59.0 °F 54% 30.10 in 10.0 mi Variable 3.5 mph - N/A   Clear
9:54 AM 78.1 °F - 60.1 °F 54% 30.10 in 10.0 mi NNW 6.9 mph - N/A   Partly Cloudy
10:54 AM 79.0 °F - 57.0 °F 47% 30.09 in 10.0 mi WNW 6.9 mph - N/A   Partly Cloudy
11:54 AM 80.1 °F 80.6 °F 57.9 °F 47% 30.10 in 10.0 mi North 9.2 mph - N/A   Mostly Cloudy
12:54 PM 82.0 °F 81.4 °F 55.0 °F 39% 30.09 in 10.0 mi North 11.5 mph - N/A   Partly Cloudy
1:54 PM 82.9 °F 81.8 °F 53.1 °F 36% 30.09 in 10.0 mi North 11.5 mph 17.3 mph N/A   Partly Cloudy
2:54 PM 80.1 °F - 51.1 °F 36% 30.09 in 10.0 mi NNW 11.5 mph - N/A   Partly Cloudy
3:54 PM 82.9 °F - 51.1 °F 33% 30.07 in 10.0 mi NNW 10.4 mph 19.6 mph N/A   Clear
4:54 PM 82.9 °F - 51.1 °F 33% 30.08 in 10.0 mi North 12.7 mph 18.4 mph N/A   Clear
5:54 PM 82.0 °F - 51.1 °F 34% 30.08 in 10.0 mi North 10.4 mph - N/A   Clear
6:54 PM 81.0 °F - 51.1 °F 35% 30.08 in 10.0 mi NNW 12.7 mph - N/A   Clear
7:54 PM 78.1 °F - 50.0 °F 37% 30.08 in 10.0 mi North 9.2 mph - N/A   Clear
8:54 PM 73.9 °F - 51.1 °F 45% 30.09 in 10.0 mi NNE 6.9 mph - N/A   Clear
9:54 PM 72.0 °F - 51.1 °F 48% 30.11 in 10.0 mi NE 4.6 mph - N/A   Clear
10:54 PM 66.9 °F - 54.0 °F 63% 30.12 in 10.0 mi Calm Calm - N/A   Clear
11:54 PM 66.0 °F - 55.9 °F 70% 30.12 in 10.0 mi Calm Calm - N/A   Clear